Stations météo

Publicité
Leutkirch-Herlazhofen, Allemagne (10945): Température de l'air & dewpoint: 11.12.2018 13:00:00 - 17.12.2018 13:00:00 (CET)Leutkirch-Herlazhofen, Allemagne (10945): Température de l'air 5cm & Température de l'air -5cm: 11.12.2018 13:00:00 - 17.12.2018 13:00:00 (CET)Leutkirch-Herlazhofen, Allemagne (10945): Température de l'air -20cm & Température de l'air -100cm: 11.12.2018 13:00:00 - 17.12.2018 13:00:00 (CET)Leutkirch-Herlazhofen, Allemagne (10945): Vitesse du vent & gusts: 11.12.2018 13:00:00 - 17.12.2018 13:00:00 (CET)Leutkirch-Herlazhofen, Allemagne (10945): Direction du vent: 11.12.2018 13:00:00 - 17.12.2018 13:00:00 (CET)Leutkirch-Herlazhofen, Allemagne (10945): reduced air pressure: 11.12.2018 13:00:00 - 17.12.2018 13:00:00 (CET)Leutkirch-Herlazhofen, Allemagne (10945): visibility: 11.12.2018 13:00:00 - 17.12.2018 13:00:00 (CET)Leutkirch-Herlazhofen, Allemagne (10945): Ensoleillement: 11.12.2018 13:00:00 - 17.12.2018 13:00:00 (CET)Leutkirch-Herlazhofen, Allemagne (10945): Quantités de précipitations: 11.12.2018 13:00:00 - 17.12.2018 13:00:00 (CET)
Date & Time tt [°C] td [°C] tt 5cm [°C] tt -5cm [°C] tt -20cm [°C] tt -100cm [°C] ff [km/h] ff [knt] fx [km/h] fx [knt] dd ppp [hPa] vv [km] sd [min] rr [mm]
17.12.2018 13:00:00 0,9 0,2 1,1 -0,2 1,2 6,4 14 8 21 11 SSW 1025,3 12 0 0,0
17.12.2018 12:00:00 0,4 0,0 0,8 -0,3 1,2 6,4 15 8 22 12 SSW 1025,4 7 0 0,0
17.12.2018 11:00:00 -0,1 -0,2 0,2 -0,3 1,2 6,4 8 5 11 6 S 1025,3 0,7 0 0,0
17.12.2018 10:00:00 -0,6 -0,6 -0,4 -0,3 1,2 6,4 4 2 7 4 S 1024,6 0,9 0 0,0
17.12.2018 09:00:00 -1,1 -1,1 -1,1 -0,3 1,2 6,4 4 2 6 4 SSE 1023,6 0,2 0 0,0
17.12.2018 08:00:00 -2,2 -2,5 -2,2 -0,4 1,2 6,4 4 2 5 3 SE 1022,9 1,9 0 0,0
17.12.2018 07:00:00 -3,3 -3,6 -3,0 -0,4 1,2 6,4 0 0 5 3 N 1022,3 0,5 0 0,0
17.12.2018 06:00:00 -5,2 -5,9 -4,6 -0,3 1,2 6,5 3 2 4 2 ESE 1021,7 29 0 0,0
17.12.2018 05:00:00 -5,7 -6,5 -5,7 -0,3 1,2 6,5 0 0 4 2 N 1021,1 38 0 0,0
17.12.2018 04:00:00 -6,3 -6,6 -7,5 -0,2 1,2 6,5 3 2 4 2 S 1020,5 0,9 0 0,0
17.12.2018 03:00:00 -5,8 -6,0 -8,5 -0,2 1,2 6,5 2 1 5 3 E 1020,1 0,2 0 0,0
17.12.2018 02:00:00 -5,6 -5,7 -8,1 -0,2 1,2 6,5 0 0 4 2 N 1019,3 0,2 0 0,0
17.12.2018 01:00:00 -5,6 -6,3 -9,2 -0,2 1,2 6,5 0 0 4 2 N 1019,4 0,4 0 0,0
17.12.2018 00:00:00 -4,5 -4,6 -8,8 -0,2 1,2 6,5 4 2 5 3 ESE 1019,3 0,4 0 0,0
16.12.2018 23:00:00 -4,7 -5,1 -9,0 -0,2 1,2 6,5 3 1 4 2 NE 1019,3 0,2 0 0,0
16.12.2018 22:00:00 -3,3 -3,5 -8,5 -0,2 1,2 6,5 3 2 9 5 SSE 1018,6 4,1 0 0,0
16.12.2018 21:00:00 -1,5 -1,5 -5,4 -0,2 1,2 6,5 5 3 10 5 SE 1018,3 0,4 0 0,0
16.12.2018 20:00:00 -3,0 -3,4 -5,5 -0,2 1,2 6,5 5 3 7 4 S 1018,6 0,4 0 0,0
16.12.2018 19:00:00 0,1 -0,1 -0,9 -0,3 1,2 6,5 5 3 11 6 SE 1017,4 12 0 0,0
16.12.2018 18:00:00 1,0 0,3 -0,7 -0,3 1,2 6,6 6 3 11 6 S 1016,8 25 0 0,0
16.12.2018 17:00:00 2,0 1,1 0,8 -0,3 1,2 6,6 8 5 16 9 SSW 1016,3 40 0 0,0
16.12.2018 16:00:00 2,5 1,3 1,3 -0,4 1,2 6,6 11 6 29 16 WSW 1015,7 37 0 0,0
16.12.2018 15:00:00 2,5 1,2 1,4 -0,4 1,2 6,6 22 12 39 21 SW 1015,6 42 0 0,0
16.12.2018 14:00:00 2,3 1,0 1,6 -0,5 1,2 6,6 25 14 39 21 SW 1015,3 38 0 0,0
16.12.2018 13:00:00 1,9 0,8 0,8 -0,5 1,2 6,6 23 13 36 20 SW 1015,3 32 0 0,0
16.12.2018 12:00:00 1,4 0,7 -0,1 -0,6 1,2 6,6 19 10 33 18 SW 1015,6 17 0 0,0
16.12.2018 11:00:00 -0,2 -0,7 -0,1 -0,6 1,3 6,6 19 11 31 17 SSW 1016,1 6 0 0,0
16.12.2018 10:00:00 -1,3 -2,1 -1,0 -0,7 1,3 6,6 14 7 21 12 SSW 1015,9 6 0 0,1
16.12.2018 09:00:00 -2,7 -3,6 -2,5 -0,7 1,3 6,6 12 6 18 10 SSW 1016,1 3,9 0 1,4
16.12.2018 08:00:00 -3,8 -4,7 -3,8 -0,8 1,3 6,6 12 7 16 9 SSE 1016,2 0,7 0 1,2
16.12.2018 07:00:00 -4,2 -5,1 -4,0 -0,9 1,3 6,6 5 3 7 4 W 1016,4 2,1 0 1,0
16.12.2018 06:00:00 -4,4 -5,3 -4,3 -1,0 1,3 6,6 6 3 10 5 SE 1016,7 0,8 0 0,9
16.12.2018 05:00:00 -4,4 -6,7 -4,7 -1,2 1,4 6,7 0 0 13 7 N 1017,4 19 0 0,0
16.12.2018 04:00:00 -5,1 -7,3 -5,3 -1,2 1,4 6,7 10 6 16 9 SSE 1018,0 17 0 0,0
16.12.2018 03:00:00 -6,2 -8,2 -6,5 -1,3 1,4 6,7 6 4 8 5 SSE 1019,7 34 0 0,0
16.12.2018 02:00:00 -7,6 -9,1 -7,6 -1,4 1,5 6,7 3 1 4 2 SSE 1020,1 32 0 0,0
16.12.2018 01:00:00 -8,8 -10,1 -8,8 -1,5 1,5 6,7 3 1 6 3 ESE 1020,9 19 0 0,0
16.12.2018 00:00:00 -10,3 -11,5 -10,8 -1,5 1,5 6,7 3 1 9 5 SE 1022,5 17 0 0,0
15.12.2018 23:00:00 -10,3 -11,5 -13,3 -1,3 1,5 6,7 4 2 7 4 SSE 1023,6 14 0 0,0
15.12.2018 22:00:00 -10,5 -12,2 -13,5 -1,1 1,6 6,7 2 1 7 4 W 1024,1 13 0 0,0
15.12.2018 21:00:00 -9,9 -11,5 -12,3 -0,9 1,6 6,7 3 1 11 6 ESE 1024,7 16 0 0,0
15.12.2018 20:00:00 -6,8 -9,5 -10,3 -0,7 1,6 6,7 8 5 11 6 ENE 1024,7 24 0 0,0
15.12.2018 19:00:00 -6,0 -8,6 -8,8 -0,5 1,6 6,7 9 5 13 7 NE 1025,2 21 0 0,0
15.12.2018 18:00:00 -6,0 -9,2 -8,8 -0,4 1,6 6,7 8 4 13 7 ENE 1025,5 27 0 0,0
15.12.2018 17:00:00 -4,9 -8,6 -7,6 -0,2 1,6 6,8 8 4 16 9 ENE 1025,4 28 20 0,0
15.12.2018 16:00:00 -3,7 -8,1 -4,1 -0,2 1,6 6,8 10 6 19 10 ENE 1025,1 32 60 0,0
15.12.2018 15:00:00 -3,4 -8,3 -2,6 -0,2 1,6 6,8 13 7 23 12 E 1025,0 32 60 0,0
15.12.2018 14:00:00 -3,4 -8,4 -2,0 -0,2 1,6 6,8 12 6 19 11 ENE 1025,0 28 60 0,0
15.12.2018 13:00:00 -3,6 -8,8 -1,6 -0,3 1,7 6,8 13 7 24 13 E 1025,5 30 60 0,0
15.12.2018 12:00:00 -4,3 -9,1 -2,3 -0,3 1,7 6,8 13 7 25 13 E 1026,3 32 35 0,0
15.12.2018 11:00:00 -4,7 -9,4 -2,5 -0,4 1,7 6,8 10 5 24 13 E 1027,2 25 4 0,0
15.12.2018 10:00:00 -5,0 -8,8 -4,6 -0,4 1,7 6,8 15 8 22 12 E 1027,3 27 0 0,0
15.12.2018 09:00:00 -5,0 -8,4 -4,8 -0,4 1,7 6,8 11 6 17 9 E 1027,0 24 0 0,0
15.12.2018 08:00:00 -4,9 -8,7 -5,0 -0,4 1,7 6,8 11 6 16 9 ENE 1026,8 27 0 0,0
15.12.2018 07:00:00 -4,8 -8,4 -4,8 -0,4 1,7 6,8 11 6 16 9 ENE 1026,7 21 0 0,0
15.12.2018 06:00:00 -4,7 -8,0 -4,6 -0,3 1,8 6,8 7 4 14 7 ENE 1026,7 23 0 0,0
15.12.2018 05:00:00 -4,6 -8,0 -4,6 -0,3 1,8 6,9 7 4 14 7 ENE 1026,4 22 0 0,0
15.12.2018 04:00:00 -4,5 -7,9 -4,5 -0,3 1,8 6,9 9 5 16 9 ENE 1026,0 23 0 0,0
15.12.2018 03:00:00 -4,4 -7,9 -4,3 -0,3 1,8 6,9 6 3 13 7 ENE 1025,9 26 0 0,0
15.12.2018 02:00:00 -4,3 -8,0 -4,3 -0,2 1,8 6,9 6 4 10 5 ENE 1025,2 26 0 0,0
15.12.2018 01:00:00 -4,3 -7,9 -4,4 -0,2 1,8 6,9 6 3 12 7 NE 1025,0 27 0 0,0
15.12.2018 00:00:00 -4,4 -7,8 -4,3 -0,2 1,9 6,9 4 2 8 4 NE 1025,0 25 0 0,0
14.12.2018 23:00:00 -4,9 -7,5 -5,0 -0,2 1,9 6,9 3 2 11 6 SE 1025,4 21 0 0,0
14.12.2018 22:00:00 -5,1 -8,0 -5,0 -0,2 1,9 6,9 10 5 13 7 SSE 1025,5 21 0 0,0
14.12.2018 21:00:00 -4,6 -7,6 -4,5 -0,1 1,9 6,9 7 4 10 6 S 1024,9 21 0 0,0
14.12.2018 20:00:00 -4,1 -7,7 -4,3 -0,1 1,9 6,9 7 4 14 7 NE 1024,1 25 0 0,0
14.12.2018 19:00:00 -4,1 -7,8 -4,3 0,0 1,9 6,9 8 4 19 10 NE 1023,6 25 0 0,0
14.12.2018 18:00:00 -4,0 -7,9 -4,3 0,0 1,9 6,9 13 7 21 11 E 1022,8 26 0 0,0
14.12.2018 17:00:00 -4,4 -7,9 -5,3 0,1 1,9 7,0 10 6 20 11 E 1022,4 25 17 0,0
14.12.2018 16:00:00 -3,7 -7,6 -3,8 0,1 2,0 7,0 12 7 20 11 E 1021,4 27 60 0,0
14.12.2018 15:00:00 -3,4 -7,6 -2,6 0,1 2,0 7,0 12 7 24 13 E 1020,7 34 58 0,0
14.12.2018 14:00:00 -3,0 -7,8 -1,8 0,0 2,0 7,0 14 8 24 13 ENE 1020,2 30 60 0,0
14.12.2018 13:00:00 -3,1 -7,5 -1,4 0,0 2,0 7,0 14 8 21 11 E 1020,5 32 60 0,0
14.12.2018 12:00:00 -3,8 -7,9 -2,6 0,0 2,0 7,0 16 8 24 13 E 1020,6 28 46 0,0
14.12.2018 11:00:00 -3,9 -7,9 -2,3 0,0 2,0 7,0 18 10 23 13 ENE 1020,6 29 50 0,0
14.12.2018 10:00:00 -3,9 -8,0 -2,3 -0,1 2,0 7,0 12 6 25 14 ENE 1020,1 27 60 0,0
14.12.2018 09:00:00 -4,0 -7,5 -3,3 -0,1 2,1 7,0 11 6 21 11 ENE 1019,5 24 17 0,0
14.12.2018 08:00:00 -4,1 -7,5 -4,6 0,0 2,1 7,0 13 7 23 12 E 1018,8 24 0 0,0
14.12.2018 07:00:00 -3,7 -6,9 -3,9 0,0 2,1 7,0 11 6 27 15 E 1018,5 23 0 0,0
14.12.2018 06:00:00 -3,7 -7,0 -4,0 0,1 2,1 7,0 11 6 25 14 E 1018,3 24 0 0,0
14.12.2018 05:00:00 -3,7 -7,3 -4,1 0,1 2,1 7,1 15 8 26 14 E 1018,1 25 0 0,0
14.12.2018 04:00:00 -3,7 -7,1 -4,0 0,2 2,2 7,1 16 8 24 13 ENE 1017,8 26 0 0,0
14.12.2018 03:00:00 -3,6 -6,7 -4,1 0,2 2,2 7,1 12 6 21 11 ENE 1017,7 22 0 0,0
14.12.2018 02:00:00 -3,5 -6,4 -4,1 0,3 2,2 7,1 10 6 22 12 ENE 1017,3 23 0 0,0
14.12.2018 01:00:00 -3,3 -6,5 -3,8 0,4 2,2 7,1 15 8 24 13 ENE 1017,3 23 0 0,0
14.12.2018 00:00:00 -3,3 -6,5 -4,3 0,4 2,2 7,1 13 7 22 12 ENE 1016,9 24 0 0,0
13.12.2018 23:00:00 -3,0 -6,0 -3,3 0,5 2,3 7,1 12 6 19 11 NE 1016,8 24 0 0,0
13.12.2018 22:00:00 -3,1 -6,2 -4,6 0,5 2,3 7,1 11 6 24 13 ENE 1016,5 28 0 0,0
13.12.2018 21:00:00 -2,6 -5,9 -3,3 0,6 2,3 7,1 16 8 27 15 ENE 1016,2 27 0 0,0
13.12.2018 20:00:00 -2,4 -5,9 -2,8 0,6 2,3 7,1 10 5 27 14 NE 1016,0 28 0 0,0
13.12.2018 19:00:00 -2,4 -6,1 -3,3 0,6 2,3 7,1 14 8 29 16 ENE 1015,8 29 0 0,0
13.12.2018 18:00:00 -2,4 -6,3 -3,6 0,7 2,3 7,1 17 9 32 18 ENE 1015,8 35 0 0,0
13.12.2018 17:00:00 -2,2 -6,2 -3,3 0,7 2,3 7,2 16 9 25 13 NE 1015,5 40 16 0,0
13.12.2018 16:00:00 -1,5 -5,7 -1,3 0,7 2,3 7,2 13 7 31 17 ENE 1015,2 44 60 0,0
13.12.2018 15:00:00 -1,0 -5,7 0,5 0,6 2,3 7,2 13 7 28 15 E 1014,8 48 50 0,0
13.12.2018 14:00:00 -1,4 -6,0 -0,5 0,6 2,3 7,2 13 7 32 18 E 1015,0 59 58 0,0
13.12.2018 13:00:00 -1,3 -5,8 -0,3 0,6 2,4 7,2 16 9 28 15 E 1015,0 48 60 0,0
13.12.2018 12:00:00 -1,6 -5,5 0,5 0,6 2,4 7,2 13 7 29 15 E 1015,4 46 53 0,0
13.12.2018 11:00:00 -2,0 -5,9 -0,8 0,6 2,4 7,2 15 8 28 15 E 1016,2 41 60 0,0
13.12.2018 10:00:00 -2,0 -5,5 -0,8 0,6 2,4 7,2 12 6 33 18 E 1016,5 37 24 0,0
13.12.2018 09:00:00 -2,5 -5,6 -3,1 0,7 2,4 7,2 17 9 28 15 E 1016,9 32 17 0,0
13.12.2018 08:00:00 -2,8 -5,5 -4,3 0,7 2,4 7,2 13 7 27 15 E 1017,1 33 0 0,0
13.12.2018 07:00:00 -2,0 -5,2 -3,3 0,7 2,4 7,2 16 9 28 15 E 1016,6 40 0 0,0
13.12.2018 06:00:00 -1,6 -3,7 -1,8 0,7 2,4 7,2 9 5 21 11 ENE 1017,0 24 0 0,0
13.12.2018 05:00:00 -1,4 -3,1 -1,6 0,8 2,5 7,2 12 6 19 10 NNE 1017,6 23 0 0,0
13.12.2018 04:00:00 -1,3 -3,1 -1,5 0,8 2,5 7,3 12 6 19 11 NE 1018,1 22 0 0,0
13.12.2018 03:00:00 -1,3 -3,3 -1,6 0,8 2,5 7,3 10 5 21 12 NE 1019,0 31 0 0,0
13.12.2018 02:00:00 -1,1 -3,3 -1,4 0,8 2,5 7,3 14 8 21 11 NE 1019,3 33 0 0,0
13.12.2018 01:00:00 -1,2 -3,0 -1,6 0,8 2,5 7,3 11 6 21 12 NE 1019,7 17 0 0,0
13.12.2018 00:00:00 -2,0 -4,0 -4,3 0,8 2,5 7,3 9 5 16 9 NE 1020,4 23 0 0,0
12.12.2018 23:00:00 -1,1 -3,9 -1,7 0,8 2,5 7,3 12 6 23 12 ENE 1020,7 38 0 0,0
12.12.2018 22:00:00 -1,0 -4,0 -1,4 0,8 2,5 7,3 16 9 30 16 E 1021,2 44 0 0,0
12.12.2018 21:00:00 -1,3 -3,6 -1,7 0,8 2,6 7,3 14 7 23 13 ENE 1021,6 28 0 0,0
12.12.2018 20:00:00 -2,4 -4,5 -3,0 0,8 2,6 7,3 10 5 16 9 ENE 1022,2 31 0 0,0
12.12.2018 19:00:00 -2,2 -4,7 -4,3 0,8 2,6 7,3 10 6 16 9 NE 1022,1 35 0 0,0
12.12.2018 18:00:00 -1,9 -4,5 -4,3 0,8 2,6 7,3 7 4 18 10 ENE 1022,5 31 0 0,0
12.12.2018 17:00:00 -0,7 -4,2 -2,1 0,8 2,6 7,3 13 7 24 13 ENE 1022,2 49 0 0,0
12.12.2018 16:00:00 -0,3 -3,9 -0,8 0,8 2,6 7,3 11 6 28 15 NE 1022,4 45 20 0,0
12.12.2018 15:00:00 -0,2 -2,8 0,0 0,8 2,7 7,4 12 7 21 12 NE 1022,8 23 50 0,0
12.12.2018 14:00:00 0,1 -3,2 0,3 0,8 2,7 7,4 9 5 20 11 NE 1022,9 31 60 0,0
12.12.2018 13:00:00 -0,2 -3,6 0,4 0,8 2,7 7,4 10 5 18 10 NE 1023,7 41 32 0,0
12.12.2018 12:00:00 -0,3 -3,5 -0,2 0,8 2,7 7,4 9 5 17 9 ENE 1024,1 36 40 0,0
12.12.2018 11:00:00 -2,3 -6,8 -1,8 0,8 2,8 7,4 2 1 4 2 NW 1025,2 22 60 0,0
12.12.2018 10:00:00 -6,0 -8,0 -4,8 0,8 2,8 7,4 0 0 3 2 N 1026,7 16 60 0,0
12.12.2018 09:00:00 -7,5 -8,7 -7,6 0,9 2,8 7,4 0 0 6 3 N 1027,2 23 30 0,0
12.12.2018 08:00:00 -7,7 -8,6 -9,3 0,9 2,9 7,4 8 4 9 5 S 1027,4 19 0 0,0
12.12.2018 07:00:00 -7,9 -9,2 -11,1 1,0 2,9 7,4 3 2 5 3 ENE 1027,4 18 0 0,0
12.12.2018 06:00:00 -7,5 -8,5 -9,8 1,1 2,9 7,4 3 2 8 5 ESE 1026,9 20 0 0,0
12.12.2018 05:00:00 -6,0 -6,5 -8,8 1,1 2,9 7,4 5 3 9 5 SSE 1026,7 7 0 0,0
12.12.2018 04:00:00 -6,2 -6,8 -8,1 1,1 2,9 7,4 6 3 8 4 SE 1027,1 14 0 0,0
12.12.2018 03:00:00 -4,2 -4,8 -7,3 1,2 3,0 7,4 4 2 8 4 SSE 1026,6 24 0 0,0
12.12.2018 02:00:00 -4,1 -5,0 -4,8 1,2 3,0 7,4 3 2 6 3 ENE 1026,2 23 0 0,0
12.12.2018 01:00:00 -4,6 -5,0 -6,0 1,2 3,0 7,4 3 2 6 4 ESE 1026,7 9 0 0,0
12.12.2018 00:00:00 -4,6 -5,0 -8,3 1,2 3,0 7,5 3 2 7 4 S 1026,5 0,4 0 0,0
11.12.2018 23:00:00 -2,9 -3,8 -4,8 1,2 3,1 7,5 4 2 11 6 ENE 1026,0 29 0 0,0
11.12.2018 22:00:00 -2,1 -3,0 -3,1 1,3 3,1 7,5 6 3 10 5 SSE 1025,7 22 0 0,0
11.12.2018 21:00:00 -2,9 -3,3 -5,3 1,3 3,1 7,5 0 0 6 3 N 1026,5 7 0 0,0
11.12.2018 20:00:00 -1,7 -2,4 -2,9 1,3 3,2 7,5 3 2 10 6 S 1026,2 21 0 0,0
11.12.2018 19:00:00 -2,3 -2,9 -4,4 1,4 3,2 7,5 6 3 8 4 SSW 1026,3 13 0 0,0
11.12.2018 18:00:00 -1,2 -1,9 -2,7 1,5 3,2 7,5 5 3 10 5 S 1025,8 21 0 0,0
11.12.2018 17:00:00 -2,0 -2,8 -4,3 1,6 3,3 7,5 8 4 18 10 SSW 1025,7 23 0 0,0
11.12.2018 16:00:00 0,5 -2,3 -0,5 1,8 3,3 7,5 13 7 19 10 SSW 1024,9 57 19 0,0
11.12.2018 15:00:00 0,8 -2,5 -0,1 1,8 3,3 7,5 14 7 22 12 WSW 1024,9 64 1 0,0
11.12.2018 14:00:00 0,3 -2,7 -0,8 1,7 3,3 7,5 14 8 26 14 WSW 1025,1 33 7 0,0
11.12.2018 13:00:00 0,6 -2,6 0,0 1,7 3,3 7,5 19 11 29 16 SW 1025,4 59 0 0,0

tt = Température de l'air
td = dewpoint
tt 5cm = Température de l'air 5cm
tt -5cm = Température de l'air -5cm
tt -20cm = Température de l'air -20cm
tt -100cm = Température de l'air -100cm
ff = Vitesse du vent
fx = gusts
dd = Direction du vent
ppp = reduced air pressure
vv = visibility
sd = Ensoleillement
rr = Quantités de précipitations

stations d'obs. à proximité